Rbgn^[z[y[W
メイン
   新天体発見情報
     Comet C/2021 Q3 (ATLAS)
投稿するにはまず登録を

フラット表示 前のトピック | 次のトピック
投稿者 スレッド
佐藤裕久
投稿日時: 2021-9-25 22:11
モデレータ
登録日: 2005-6-12
居住地: 日本
投稿: 2674
オンライン
Comet C/2021 Q3 (ATLAS)

8月26日UT、ハワイ Haleakalaにある小惑星地球衝突最終警報システム Asteroid Terrestrial-
impact Last Alert System (ATLAS)調査プログラムのコースに0.5-m f/2 Schmidt反射望遠鏡
で得たCCD画像から彗星が発見された。
小惑星センターのPCCP webpageに公表後、L. Buzzi (Varese, イタリア: 測定はA. Alettiと
彼, 8月26.9日UT、30秒露出75枚のスタック, 0.84-m f/3.5 反射望遠鏡, 4".5のシーイングで、
集光した7" 幅のコマが見え、かすかな19.4等でp.a.95°に10"のまっすぐな尾がある)や佐藤
英貴氏(東京都文京区, 8月29.18日, 60秒露出10枚のスタック, 0.43-m f/6.8 アストログラフ, 
Mayhill近郊, ニューメキシコ州, 米国, 遠隔操作: 強く集光した10"のコマが見え、p.a.95°
に向かって6"の尾がある。5".7の円形範囲で測定した光度は18.9等であった)らCCD位置観測者
によって彗星状と観測された。

彗星機能の報告は次の通り、

OC   Date        Reporter           Coma    Tail    PA          Exposures
204  2021-08-26  A. Aletti          7"       10"     95
Z31  2021-08-26  R. Reszelewski     3".5
G18  2021-08-29  A. Valvasori       7".4                         24x120s
H06  2021-08-29  H. Sato           10"        6"     90          10x60s
Z08  2021-08-29  E. Bryssinck       7"                           36x60s
G40  2021-08-29  B. Lutkenhoner     7"                           21x50s

発見位置は次のとおり、

     2021 UT             R.A. (2000) Decl.       Mag.
     Aug. 26.29654   15 36 03.13   +82 47 43.0   19.0
          26.29975   15 36 02.12   +82 47 41.6   19.2
          26.30663   15 36 01.21   +82 47 37.1   19.2
          26.31673   15 35 58.86   +82 47 31.7   18.7

MPCの楕円軌道要素、位置推算表は次のとおり、

Orbital elements:
    C/2021 Q3 (ATLAS)                                                           
Epoch 2022 Jan. 21.0 TT = JDT 2459600.5                                         
T 2022 Jan. 21.12578 TT                                 Rudenko                 
q   5.2084861            (2000.0)            P               Q                  
z  +0.0139021      Peri.  113.51716     -0.09159520     -0.62935134             
 +/-0.0000000      Node   307.85218     +0.04186942     +0.77184245             
e   0.9275913      Incl.   77.77940     +0.99491571     -0.09042189             
From 66 observations 2021 Aug. 19-30, mean residual 0".4.                       
                                                                                
    C/2021 Q3 (ATLAS)                                                           
Epoch 2021 July 5.0 TT = JDT 2459400.5                                          
T 2022 Jan. 21.14231 TT                                 Rudenko                 
q   5.2085004            (2000.0)            P               Q                  
z  +0.0140182      Peri.  113.51797     -0.09158618     -0.62929520             
 +/-0.0000000      Node   307.84802     +0.04187519     +0.77188875             
e   0.9269863      Incl.   77.78051     +0.99491630     -0.09041739             
From 66 observations 2021 Aug. 19-30, mean residual 0".4.                       
                                                                                
Ephemeris:
Date    TT    R. A. (2000) Decl.     Delta      r    Elong.  Phase   m1
2021 08 01    18 16 21.3 +85 21 04   5.5178  5.3572    75.6    10.6  19.0
...
2021 08 16    16 16 05.1 +84 12 33   5.4667  5.3330    77.1    10.7  19.0
...
2021 08 24    15 42 41.4 +83 07 34   5.4379  5.3209    78.0    10.7  18.9
...
2021 08 30    15 27 29.3 +82 15 16   5.4154  5.3122    78.8    10.7  18.9
2021 08 31    15 25 34.0 +82 06 29   5.4115  5.3108    78.9    10.8  18.9
2021 09 01    15 23 47.6 +81 57 42   5.4077  5.3094    79.1    10.8  18.9
...
2021 09 07    15 15 51.7 +81 05 38   5.3840  5.3011    79.9    10.8  18.9
...
2021 09 15    15 10 48.6 +79 59 28   5.3509  5.2907    81.2    10.8  18.9
...
2021 09 30    15 11 55.5 +78 11 57   5.2845  5.2727    83.9    10.9  18.8

(MPEC 2021-Q97、CBET 5027)

フラット表示 前のトピック | 次のトピック

題名 投稿者 日時
 » Comet C/2021 Q3 (ATLAS) 佐藤裕久 2021-9-25 22:11

投稿するにはまず登録を
 
© 1999 Tsutomu Seki.